Погода в Осиеке

Хорватия     45°33′13″N   18°41′37″E
темп.,
°C
ветер,
м/с
пор.,
м/с
влажн.,
%
обл.,
%
осадки,
мм/ч
давл.,
гПа
погр.,
м
17 августа, ср
ср1723:00+21зюз35610 0.0 101179
02:00+20з33670 0.0 101133
05:00+19зюз33730 0.0 101141
08:00+24з34560 0.0 1012270
11:00+31зсз44340 0.0 10121373
14:00+35з23240 0.0 10102916
17:00+35юз34218 0.0 10103217
20:00+30зюз47310 0.0 1010107
18 августа, чт
чт1823:00+26юз22380 0.0 101014
02:00+23зюз33464 0.0 101047
05:00+22зюз22500 0.0 101017
08:00+27юз22360 0.0 1011206
11:00+35ююз44230 0.0 10101162
14:00+39зюз46182 0.0 10092883
17:00+40з57165 0.0 10073706
20:00+32сз452534 0.0 100763
19 августа, пт
пт1923:00+28сз483434 0.0 1008112
02:00+25зсз22445 0.0 100811
05:00+23ссз11475 0.0 100711
08:00+28с223497 0.0 1008190
11:00+35зсз222497 0.0 1008950
14:00+39св3418100 0.0 10051518
17:00+21ссз101585100 1.0 1005224
20:00+21зюз22885 2.5 100824
20 августа, сб
сб2023:00+21вюв4108738 1.0 1010194
02:00+19ссз22915 1.6 100933
05:00+19сз239310 0.0 101053
08:00+21с3481100 0.0 1012301
11:00+27ссз2351100 0.0 10121130
14:00+31сз333753 0.0 10111686
17:00+33сз653153 0.0 10102384
20:00+24ссз7135911 0.2 1011483
21 августа, вс
вс2123:00+20ссз3574100 0.4 101397
02:00+18зсз468424 0.6 1014132
05:00+17зсз4108420 0.0 1013245
08:00+21сз587098 0.0 1013667
11:00+22ссз4567100 0.1 1013941
14:00+23сз2465100 0.2 10131001
17:00+25с245828 0.0 10121113
20:00+23св246340 0.2 101192